Regional Weather Roundup
Issued by NWS San Diego, CA

Home | Current Version | Previous Version | Text Only | Print | Product List | Glossary On
Versions: 1 2 3 4 5 6 7 8 9 10 11 12 13 14 15 16 17 18 19 20 21 22 23 24 25 26 27 28 29 30 31 32 33 34 35 36 37 38 39 40 41 42 43 44 45 46 47 48 49 50
000
ASUS46 KSGX 051811
RWRSGX

SAN DIEGO HOURLY WEATHER ROUNDUP
NATIONAL WEATHER SERVICE SAN DIEGO CA
1000 AM PST THU DEC 05 2019

NOTE: "FAIR" INDICATES FEW OR NO CLOUDS BELOW 12,000 FEET WITH NO
SIGNIFICANT WEATHER AND/OR OBSTRUCTIONS TO VISIBILITY.

CAZ042-043-060-061-PZZ750-775-051900-

GREATER SAN DIEGO AREA

CITY           SKY/WX    TMP DP  RH WIND       PRES   REMARKS
SAN DIEGO AP   PTSUNNY   66  58  75 CALM      30.17R
NATIONAL CITY    N/A    N/A N/A N/A CALM      30.16R
CHULA VISTA      N/A     62  59  90 CALM      30.07R
BROWN FIELD    MOSUNNY   61  54  77 CALM      30.16R
MIRAMAR MCAS   MOSUNNY   66  54  65 CALM      30.15R
MONTGOMERY FLD MOSUNNY   63  54  72 VRB3      30.16R
GILLESPIE FLD  MOSUNNY   59  54  82 CALM      30.17R

$$

NORTH SAN DIEGO COUNTY

CITY           SKY/WX    TMP DP  RH WIND       PRES   REMARKS
CAMP PENDLETON PTSUNNY   64  54  69 NE3       30.16R
OCEANSIDE AP   SUNNY     62  55  77 E3        30.15R
OCEANSIDE HBR    N/A     60  57  88 NE3       30.18R
VISTA            N/A     58  53  85 CALM      30.14R
CARLSBAD       SUNNY     62  55  77 VRB3      30.15R
DEL MAR          N/A     62  61  97 NE2       30.17R
LA JOLLA SCRIP   N/A     60  56  85 CALM      30.16R
FALLBROOK      FAIR      59  52  77 CALM      30.17R
ESCONDIDO        N/A     64  57  77 SE2       30.16R
SAN MARCOS       N/A     61  56  81 CALM      30.19R
POWAY            N/A     58  56  91 CALM      30.16R

$$

EAST SAN DIEGO COUNTY

CITY           SKY/WX    TMP DP  RH WIND       PRES   REMARKS
RAMONA         SUNNY     60  51  72 CALM      30.15S
SANTEE LAKES     N/A     60  56  89 S2        30.14R
LA MESA          N/A     59  56  90 CALM      30.11R
JAMUL            N/A     60  53  76 CALM      30.17R
DESCANSO N       N/A     52  47  83 E3        30.12R
MT. LAGUNA OBS   N/A     54  46  74 W6        30.17
CAMPO            N/A     55  47  74 CALM      30.12R

$$

ORANGE COUNTY AND THE LOS ANGELES BASIN

CITY           SKY/WX    TMP DP  RH WIND       PRES   REMARKS
JOHN WAYNE AP  MOSUNNY   64  52  64 NE5       30.15S
LAGUNA BEACH     N/A     62  58  87 CALM      30.14R
LAKE FOREST FR   N/A     56  52  88 CALM      30.04S
HUNTINGTON BCH   N/A     62  59  90 CALM      30.16R
LOS ALAMITOS   MOSUNNY   62  55  77 CALM      30.16R
FULLERTON      SUNNY     63  53  70 E6        30.15S
LONG BEACH     MOSUNNY   61  54  77 E3        30.16S
L.A. AP        PTSUNNY   63  53  70 E6        30.17R
L.A. DOWNTOWN  SUNNY     64  50  60 E5        30.16S

$$

THE INLAND EMPIRE

CITY           SKY/WX    TMP DP  RH WIND       PRES   REMARKS
CORONA         SUNNY     59  55  87 VRB3      30.18R
CHINO          PTSUNNY   58  52  80 SE3       30.18R
ONTARIO        PTSUNNY   60  50  69 E5        30.16S
SAN BERNARDINO PTSUNNY   57  48  72 CALM      30.18R
RIVERSIDE AP   MOSUNNY   58  51  78 NE6       30.17R
MORENO VALLEY    N/A     55  55 100 W2        30.15R
MARCH ARB      PTSUNNY   51  51 100 CALM      30.17R
HORSETHIEF CYN   N/A     50  48  91 CALM      30.18R
PERRIS           N/A     52  52 100 CALM      30.20F
HEMET EAST       N/A     56  47  72 CALM      30.20S
FRENCH VALLEY  MOCLDY    50  50 100 CALM      30.18R
TEMECULA         N/A     52  52 100 W2        30.15R

$$

SAN BERNARDINO AND RIVERSIDE COUNTY MOUNTAINS

CITY           SKY/WX    TMP DP  RH WIND       PRES   REMARKS
BIG BEAR AP    MOSUNNY   34  32  93 W3        30.20R
ANGELUS OAKS     N/A     37  35  93 CALM      30.18R

$$

SOUTHERN DESERT INCLUDING THE COACHELLA VALLEY

CITY           SKY/WX    TMP DP  RH WIND       PRES   REMARKS
PALM SPRINGS   SUNNY     61  49  64 SE3       30.17R
THOUSAND PALMS   N/A     60  51  72 S1        30.12R
PALM DESERT      N/A     59  56  90 CALM        N/A
THERMAL        SUNNY     59  53  80 CALM      30.15R
BORREGO AP     FAIR      57  52  82 CALM      30.15S
BLYTHE         CLOUDY    54  51  90 SE3       30.18R
IMPERIAL AP    MOSUNNY   57  54  89 W3        30.15S
YUMA AZ        MOSUNNY   61  51  70 N9        30.15S
MEXICALI       MOSUNNY   55  55 100 NW7       30.17R FOG

$$

UPPER DESERT

CITY           SKY/WX    TMP DP  RH WIND       PRES   REMARKS
HESPERIA         N/A     47  44  89 NW1       30.27R
APPLE VALLEY     N/A     44  43  95 CALM      30.28R
PALMDALE       PTSUNNY   50  44  80 E3        30.20R
LANCASTER      PTSUNNY   47  44  90 CALM      30.21R
EDWARDS AFB    PTSUNNY   43  42  96 NE9       30.19R
DAGGETT        CLOUDY    52  45  77 SE5       30.20R
29 PALMS N     CLOUDY    50  46  86 W7        30.26R
NEEDLES          N/A     58  51  78 SE3       30.17S

$$

REGIONAL REPORTS

CITY           SKY/WX    TMP DP  RH WIND       PRES   REMARKS
SANTA BARBARA  CLOUDY    62  52  69 E9        30.14R
SANDBERG       CLOUDY    44  42  93 NE7       30.19R FOG
LAS VEGAS NV   MOSUNNY   57  42  57 CALM      30.15R
PHOENIX AZ     MOSUNNY   63  49  60 CALM      30.12S
TIJUANA        MOSUNNY   63  54  72 CALM      30.18R
ENSENADA NW      N/A     63  32  31 CALM      30.10S

$$

OFFSHORE ISLANDS

CITY           SKY/WX    TMP DP  RH WIND       PRES   REMARKS
CATALINA ARPT  MOSUNNY   56  51  84 E5        30.16R
SAN CLEMENTE I PTSUNNY   62  53  72 SE7       30.17R
SAN NICOLAS IS PTSUNNY   61  55  81 S5        30.15R

$$

MARINE AND OFFSHORE BUOY REPORTS

STATION/POSITION SKY/WX   TEMP    WIND        PRES    VSBY  SWELL
                          AIR SEA DIR/SP/G                  HT/PER/DIR
                          (F)     (DEG/KT/KT) (MB)    (MI)  (FT/S/D)
TANNER BANKS               60 60  150/  6/  8 1020.9R         5/270/14
S CLEMENTE BASIN           63 64   90/  4/  6 1021.2R         3/190/14
SAN NICOLAS IS.               61                N/A           3/310/13
SO. S. ROSA ISLA           60 59  150/  6/  8 1021.0R         7/290/14
W. S. BARBARA CH           59 60  150/ 10/ 12 1020.5R         7/300/11
M. S. BARBARA CH           59 60  130/ 12/ 14 1021.3
S. MONICA BASIN            60 62   90/ 10/ 14 1021.4R         3/190/14
S PEDRO CHANNEL               62                N/A           2/190/14
OCEANSIDE OFFSHR              62                N/A           2/190/17
TORREY PINES OTR              60                N/A           2/200/13
SAN DIEGO BAY                 62              1020.6
IMPERIAL BEACH                62                N/A           2/240/13
POINT LOMA SOUTH              63                N/A           2/210/13

$$




USA.gov is the U.S. government's official web portal to all federal, state and local government web resources and services.